Location: Bonneuil
(46.1010°N, 2.9693°E)
Time: 11:46:40
(UTC+00:00)

Cosmos 1934 Rocket - Pass Details

Date: 09 April 2020
Orbit: 937 x 1000 km, 83.0° (Epoch: 05 June)

Event Time Altitude Azimuth Distance (km) Brightness Sun altitude
Rises 22:03:12 0° 350° (N) 3,694 8.0 -30.9°
Reaches altitude 10° 22:05:44 10° 349° (NNW) 2,733 7.1 -31.1°
Enters shadow 22:11:33 72° 301° (WNW) 1,014 4.1 -31.6°
